| time (UTC) | temp F | wind direction | speed MPH | gust MPH | rain 1hr in | rain 24hr in | rain mn in | humidity % | barometer mb |
| 20260902225744 | 90 | 203 | 4.0 | 4.0 | 0.00 | 0.00 | 0.00 | 76 | 1019.3 |
| 20260902225108 | 92 | 180 | 3.0 | 3.0 | 0.00 | 0.00 | 0.00 | 72 | 1019.3 |
| 20260902224527 | 93 | 225 | 2.0 | 3.0 | 0.00 | 0.00 | 0.00 | 71 | 1019.3 |
| 20260902223919 | 94 | 225 | 3.0 | 4.0 | 0.00 | 0.00 | 0.00 | 70 | 1019.3 |
| 20260902223305 | 94 | 225 | 2.0 | 3.0 | 0.00 | 0.00 | 0.00 | 70 | 1019.3 |
| 20260902222712 | 94 | 180 | 3.0 | 3.0 | 0.00 | 0.00 | 0.00 | 69 | 1019.3 |
| 20260902222134 | 94 | 225 | 4.0 | 4.0 | 0.00 | 0.00 | 0.00 | 69 | 1019.3 |
| 20260902221527 | 95 | 203 | 4.0 | 4.0 | 0.00 | 0.00 | 0.00 | 67 | 1019.3 |
| 20260902220948 | 96 | 203 | 3.0 | 4.0 | 0.00 | 0.00 | 0.00 | 66 | 1019.3 |
| 20260902220308 | 97 | 158 | 2.0 | 4.0 | 0.00 | 0.00 | 0.00 | 63 | 1019.3 |
| 20260902215711 | 96 | 180 | 4.0 | 4.0 | 0.00 | 0.00 | 0.00 | 64 | 1019.3 |
| 20260902215144 | 104 | 225 | 3.0 | 4.0 | 0.00 | 0.00 | 0.00 | 55 | 1019.6 |
| 20260902214509 | 104 | 203 | 3.0 | 3.0 | 0.00 | 0.00 | 0.00 | 54 | 1019.3 |
| 20260902213936 | 101 | 0 | 0.0 | 3.0 | 0.00 | 0.00 | 0.00 | 54 | 1019.3 |
| 20260902213338 | 104 | 203 | 2.0 | 3.0 | 0.00 | 0.00 | 0.00 | 52 | 1019.3 |
| 20260902212731 | 102 | 0 | 1.0 | 3.0 | 0.00 | 0.00 | 0.00 | 52 | 1019.3 |
| 20260902212120 | 102 | 225 | 2.0 | 3.0 | 0.00 | 0.00 | 0.00 | 52 | 1019.3 |
| 20260902211528 | 102 | 45 | 4.0 | 4.0 | 0.00 | 0.00 | 0.00 | 54 | 1019.6 |
| 20260902210346 | 104 | 203 | 2.0 | 4.0 | 0.00 | 0.00 | 0.00 | 51 | 1019.6 |
| 20260902205741 | 105 | 180 | 1.0 | 2.0 | 0.00 | 0.00 | 0.00 | 51 | 1019.6 |
| 20260902205127 | 106 | 203 | 1.0 | 3.0 | 0.00 | 0.00 | 0.00 | 51 | 1019.6 |
| 20260902203932 | 102 | 225 | 2.0 | 2.0 | 0.00 | 0.00 | 0.00 | 53 | 1019.9 |
| 20260902203344 | 104 | 225 | 2.0 | 4.0 | 0.00 | 0.00 | 0.00 | 51 | 1019.6 |
| 20260902202149 | 104 | 225 | 0.0 | 0.0 | 0.00 | 0.00 | 0.00 | 54 | 1019.6 |
| 20260902201522 | 106 | 248 | 2.0 | 3.0 | 0.00 | 0.00 | 0.00 | 50 | 1019.9 |
| 20260902200942 | 105 | 45 | 2.0 | 4.0 | 0.00 | 0.00 | 0.00 | 48 | 1019.9 |
| 20260902200323 | 105 | 158 | 3.0 | 5.0 | 0.00 | 0.00 | 0.00 | 51 | 1019.9 |
| 20260902195722 | 102 | 248 | 0.0 | 3.0 | 0.00 | 0.00 | 0.00 | 51 | 1019.9 |
| 20260902193930 | 102 | 45 | 0.0 | 4.0 | 0.00 | 0.00 | 0.00 | 56 | 1020.3 |
| 20260902192730 | 101 | 203 | 3.0 | 4.0 | 0.00 | 0.00 | 0.00 | 58 | 1020.3 |
| 20260902192136 | 100 | 203 | 3.0 | 3.0 | 0.00 | 0.00 | 0.00 | 59 | 1020.3 |
| 20260902191520 | 103 | 225 | 4.0 | 4.0 | 0.00 | 0.00 | 0.00 | 54 | 1020.3 |
| 20260902190935 | 102 | 225 | 4.0 | 5.0 | 0.00 | 0.00 | 0.00 | 58 | 1020.3 |
| 20260902190313 | 99 | 158 | 4.0 | 5.0 | 0.00 | 0.00 | 0.00 | 59 | 1020.6 |
| 20260902185110 | 100 | 203 | 3.0 | 4.0 | 0.00 | 0.00 | 0.00 | 57 | 1020.6 |
| 20260902184516 | 104 | 45 | 1.0 | 1.0 | 0.00 | 0.00 | 0.00 | 50 | 1020.6 |
| 20260902183328 | 103 | 315 | 2.0 | 3.0 | 0.00 | 0.00 | 0.00 | 53 | 1020.6 |
| 20260902182735 | 102 | 135 | 3.0 | 4.0 | 0.00 | 0.00 | 0.00 | 55 | 1020.6 |
| 20260902182144 | 101 | 90 | 4.0 | 4.0 | 0.00 | 0.00 | 0.00 | 57 | 1020.6 |
| 20260902181524 | 98 | 90 | 2.0 | 2.0 | 0.00 | 0.00 | 0.00 | 60 | 1020.9 |
| 20260902180917 | 97 | 293 | 3.0 | 3.0 | 0.00 | 0.00 | 0.00 | 60 | 1020.9 |
| 20260902175722 | 98 | 23 | 3.0 | 4.0 | 0.00 | 0.00 | 0.00 | 58 | 1020.9 |
| 20260902175149 | 97 | 270 | 2.0 | 3.0 | 0.00 | 0.00 | 0.00 | 60 | 1020.9 |
| 20260902174513 | 97 | 338 | 3.0 | 3.0 | 0.00 | 0.00 | 0.00 | 58 | 1021.3 |
| 20260902173913 | 97 | 90 | 1.0 | 3.0 | 0.00 | 0.00 | 0.00 | 62 | 1021.3 |
| 20260902173324 | 96 | 23 | 3.0 | 4.0 | 0.00 | 0.00 | 0.00 | 60 | 1021.6 |
| 20260902172743 | 95 | 23 | 5.0 | 5.0 | 0.00 | 0.00 | 0.00 | 61 | 1021.6 |
| 20260902171515 | 95 | 270 | 2.0 | 2.0 | 0.00 | 0.00 | 0.00 | 61 | 1022.0 |
| 20260902170937 | 95 | 203 | 4.0 | 4.0 | 0.00 | 0.00 | 0.00 | 60 | 1022.0 |
| 20260902165724 | 94 | 0 | 1.0 | 1.0 | 0.00 | 0.00 | 0.00 | 63 | 1022.0 |
| 20260902165116 | 94 | 23 | 1.0 | 2.0 | 0.00 | 0.00 | 0.00 | 63 | 1022.0 |
| 20260902164509 | 94 | 23 | 5.0 | 5.0 | 0.00 | 0.00 | 0.00 | 63 | 1022.0 |
| 20260902163912 | 94 | 23 | 2.0 | 4.0 | 0.00 | 0.00 | 0.00 | 65 | 1022.3 |
| 20260902162746 | 95 | 225 | 2.0 | 3.0 | 0.00 | 0.00 | 0.00 | 64 | 1022.3 |
| 20260902161510 | 95 | 203 | 3.0 | 3.0 | 0.00 | 0.00 | 0.00 | 65 | 1022.6 |
| 20260902160909 | 95 | 180 | 2.0 | 3.0 | 0.00 | 0.00 | 0.00 | 68 | 1022.6 |
| 20260902160313 | 95 | 270 | 5.0 | 5.0 | 0.00 | 0.00 | 0.00 | 68 | 1022.6 |
| 20260902155109 | 94 | 203 | 5.0 | 5.0 | 0.00 | 0.00 | 0.00 | 70 | 1022.6 |
| 20260902154534 | 94 | 225 | 2.0 | 2.0 | 0.00 | 0.00 | 0.00 | 71 | 1022.6 |
| 20260902153913 | 93 | 180 | 2.0 | 3.0 | 0.00 | 0.00 | 0.00 | 74 | 1022.6 |
| 20260902153343 | 92 | 180 | 3.0 | 4.0 | 0.00 | 0.00 | 0.00 | 75 | 1022.3 |
| 20260902152731 | 93 | 135 | 2.0 | 3.0 | 0.00 | 0.00 | 0.00 | 74 | 1022.6 |
| 20260902152148 | 92 | 158 | 2.0 | 4.0 | 0.00 | 0.00 | 0.00 | 75 | 1022.6 |
| 20260902151521 | 91 | 225 | 2.0 | 2.0 | 0.00 | 0.00 | 0.00 | 78 | 1022.6 |
| 20260902150946 | 90 | 180 | 2.0 | 4.0 | 0.00 | 0.00 | 0.00 | 79 | 1022.6 |
| 20260902150321 | 90 | 225 | 2.0 | 3.0 | 0.00 | 0.00 | 0.00 | 78 | 1022.6 |
| 20260902145706 | 90 | 338 | 0.0 | 2.0 | 0.00 | 0.00 | 0.00 | 78 | 1022.6 |
| 20260902145124 | 89 | 203 | 2.0 | 3.0 | 0.00 | 0.00 | 0.00 | 80 | 1022.6 |
| 20260902144544 | 89 | 158 | 0.0 | 0.0 | 0.00 | 0.00 | 0.00 | 82 | 1022.6 |
| 20260902143925 | 89 | 225 | 2.0 | 2.0 | 0.00 | 0.00 | 0.00 | 81 | 1022.6 |
| 20260902143334 | 87 | 338 | 0.0 | 3.0 | 0.00 | 0.00 | 0.00 | 83 | 1022.6 |
| 20260902142112 | 86 | 270 | 1.0 | 2.0 | 0.00 | 0.00 | 0.00 | 85 | 1022.6 |
| 20260902141510 | 86 | 203 | 2.0 | 2.0 | 0.00 | 0.00 | 0.00 | 86 | 1022.6 |
| 20260902140912 | 85 | 158 | 2.0 | 2.0 | 0.00 | 0.00 | 0.00 | 87 | 1022.6 |
| 20260902140329 | 84 | 203 | 0.0 | 0.0 | 0.00 | 0.00 | 0.00 | 88 | 1022.3 |
| 20260902135749 | 83 | 225 | 1.0 | 3.0 | 0.00 | 0.00 | 0.00 | 90 | 1022.3 |
| 20260902135130 | 82 | 180 | 0.0 | 2.0 | 0.00 | 0.00 | 0.00 | 91 | 1022.3 |
| 20260902134547 | 82 | 203 | 2.0 | 2.0 | 0.00 | 0.00 | 0.00 | 92 | 1022.3 |
| 20260902133947 | 81 | 203 | 0.0 | 2.0 | 0.00 | 0.00 | 0.00 | 93 | 1022.3 |
| 20260902132736 | 79 | 248 | 1.0 | 3.0 | 0.00 | 0.00 | 0.00 | 97 | 1022.3 |
| 20260902132118 | 79 | 203 | 2.0 | 2.0 | 0.00 | 0.00 | 0.00 | 97 | 1022.3 |
| 20260902131515 | 79 | 203 | 1.0 | 2.0 | 0.00 | 0.00 | 0.00 | 98 | 1022.3 |
| 20260902130927 | 77 | 203 | 0.0 | 2.0 | 0.00 | 0.00 | 0.00 | 99 | 1022.3 |
| 20260902130319 | 77 | 225 | 0.0 | 2.0 | 0.00 | 0.00 | 0.00 | 99 | 1022.6 |
| 20260902125725 | 76 | 270 | 0.0 | 0.0 | 0.00 | 0.00 | 0.00 | 99 | 1022.3 |
| 20260902125134 | 75 | 248 | 0.0 | 0.0 | 0.00 | 0.00 | 0.00 | 99 | 1022.3 |
| 20260902124520 | 75 | 248 | 0.0 | 0.0 | 0.00 | 0.00 | 0.00 | 99 | 1022.6 |
| 20260902123920 | 74 | 203 | 0.0 | 2.0 | 0.00 | 0.00 | 0.00 | 99 | 1022.3 |
| 20260902123305 | 73 | 203 | 0.0 | 3.0 | 0.00 | 0.00 | 0.00 | 99 | 1022.3 |
| 20260902122707 | 73 | 225 | 0.0 | 0.0 | 0.00 | 0.00 | 0.00 | 99 | 1022.6 |
| 20260902122147 | 72 | 180 | 0.0 | 0.0 | 0.00 | 0.00 | 0.00 | 99 | 1022.6 |
| 20260902120946 | 71 | 315 | 0.0 | 0.0 | 0.00 | 0.00 | 0.00 | 99 | 1022.3 |
| 20260902115705 | 70 | 270 | 0.0 | 0.0 | 0.00 | 0.00 | 0.00 | 99 | 1022.3 |
| 20260902115128 | 70 | 270 | 0.0 | 0.0 | 0.00 | 0.00 | 0.00 | 99 | 1022.3 |
| 20260902114505 | 70 | 270 | 0.0 | 0.0 | 0.00 | 0.00 | 0.00 | 99 | 1022.3 |
| 20260902113332 | 70 | 225 | 0.0 | 0.0 | 0.00 | 0.00 | 0.00 | 99 | 1022.3 |
| 20260902112750 | 70 | 270 | 0.0 | 0.0 | 0.00 | 0.00 | 0.00 | 99 | 1022.3 |
| 20260902112137 | 70 | 248 | 0.0 | 0.0 | 0.00 | 0.00 | 0.00 | 99 | 1022.0 |
| 20260902111520 | 70 | 203 | 0.0 | 0.0 | 0.00 | 0.00 | 0.00 | 99 | 1022.0 |
| 20260902110317 | 70 | 248 | 0.0 | 0.0 | 0.00 | 0.00 | 0.00 | 99 | 1022.0 |
| 20260902105722 | 70 | 225 | 0.0 | 0.0 | 0.00 | 0.00 | 0.00 | 99 | 1022.0 |
| 20260902105120 | 70 | 203 | 0.0 | 0.0 | 0.00 | 0.00 | 0.00 | 99 | 1022.0 |
| 20260902104535 | 70 | 90 | 0.0 | 0.0 | 0.00 | 0.00 | 0.00 | 99 | 1022.0 |
| 20260902103327 | 70 | 270 | 0.0 | 0.0 | 0.00 | 0.00 | 0.00 | 99 | 1022.0 |
| 20260902101523 | 70 | 225 | 0.0 | 0.0 | 0.00 | 0.00 | 0.00 | 99 | 1022.0 |
| 20260902100905 | 70 | 248 | 0.0 | 0.0 | 0.00 | 0.00 | 0.00 | 99 | 1022.0 |
| 20260902100346 | 70 | 270 | 0.0 | 0.0 | 0.00 | 0.00 | 0.00 | 99 | 1022.0 |
| 20260902095748 | 70 | 270 | 0.0 | 0.0 | 0.00 | 0.00 | 0.00 | 99 | 1022.0 |
| 20260902095132 | 70 | 225 | 0.0 | 0.0 | 0.00 | 0.00 | 0.00 | 99 | 1022.0 |
| 20260902094531 | 70 | 270 | 0.0 | 0.0 | 0.00 | 0.00 | 0.00 | 99 | 1022.0 |
| 20260902093304 | 70 | 203 | 0.0 | 0.0 | 0.00 | 0.00 | 0.00 | 99 | 1021.6 |
| 20260902092739 | 70 | 225 | 0.0 | 0.0 | 0.00 | 0.00 | 0.00 | 99 | 1021.6 |
| 20260902092147 | 70 | 203 | 0.0 | 0.0 | 0.00 | 0.00 | 0.00 | 99 | 1021.6 |
| 20260902091507 | 70 | 225 | 0.0 | 0.0 | 0.00 | 0.00 | 0.00 | 99 | 1021.6 |
| 20260902090925 | 70 | 203 | 0.0 | 0.0 | 0.00 | 0.00 | 0.00 | 99 | 1021.6 |
| 20260902090321 | 70 | 203 | 0.0 | 0.0 | 0.00 | 0.00 | 0.00 | 99 | 1021.6 |
| 20260902085744 | 70 | 180 | 0.0 | 0.0 | 0.00 | 0.00 | 0.00 | 99 | 1021.3 |
| 20260902085148 | 70 | 270 | 0.0 | 0.0 | 0.00 | 0.00 | 0.00 | 99 | 1021.6 |
| 20260902084508 | 70 | 270 | 0.0 | 0.0 | 0.00 | 0.00 | 0.00 | 99 | 1021.3 |
| 20260902083909 | 70 | 225 | 0.0 | 0.0 | 0.00 | 0.00 | 0.00 | 99 | 1021.3 |
| 20260902082108 | 70 | 225 | 0.0 | 0.0 | 0.00 | 0.00 | 0.00 | 99 | 1021.3 |
| 20260902081539 | 71 | 203 | 0.0 | 0.0 | 0.00 | 0.00 | 0.00 | 99 | 1021.3 |
| 20260902080323 | 71 | 203 | 0.0 | 0.0 | 0.00 | 0.00 | 0.00 | 99 | 1021.3 |
| 20260902075708 | 71 | 203 | 0.0 | 0.0 | 0.00 | 0.00 | 0.00 | 99 | 1021.3 |
| 20260902075114 | 71 | 225 | 0.0 | 0.0 | 0.00 | 0.00 | 0.00 | 99 | 1021.3 |
| 20260902074519 | 71 | 270 | 0.0 | 0.0 | 0.00 | 0.00 | 0.00 | 99 | 1021.3 |
| 20260902073915 | 71 | 270 | 0.0 | 0.0 | 0.00 | 0.00 | 0.00 | 99 | 1021.3 |
| 20260902073306 | 71 | 180 | 0.0 | 0.0 | 0.00 | 0.00 | 0.00 | 99 | 1021.3 |
| 20260902072722 | 71 | 293 | 0.0 | 0.0 | 0.00 | 0.00 | 0.00 | 99 | 1021.3 |
| 20260902072145 | 71 | 270 | 0.0 | 0.0 | 0.00 | 0.00 | 0.00 | 99 | 1021.3 |
| 20260902070909 | 71 | 270 | 0.0 | 0.0 | 0.00 | 0.00 | 0.00 | 99 | 1021.3 |
| 20260902065706 | 71 | 225 | 0.0 | 0.0 | 0.00 | 0.00 | 0.00 | 99 | 1021.3 |
| 20260902065138 | 71 | 225 | 0.0 | 0.0 | 0.00 | 0.00 | 0.00 | 99 | 1021.3 |
| 20260902064506 | 71 | 248 | 0.0 | 0.0 | 0.00 | 0.00 | 0.00 | 99 | 1021.3 |
| 20260902063946 | 71 | 203 | 0.0 | 0.0 | 0.00 | 0.00 | 0.00 | 99 | 1021.3 |
| 20260902063330 | 71 | 203 | 0.0 | 0.0 | 0.00 | 0.00 | 0.00 | 99 | 1021.3 |
| 20260902060909 | 72 | 248 | 0.0 | 0.0 | 0.00 | 0.00 | 0.00 | 99 | 1021.3 |
| 20260902060343 | 72 | 248 | 0.0 | 0.0 | 0.00 | 0.00 | 0.00 | 99 | 1021.3 |
| 20260902055714 | 72 | 203 | 0.0 | 0.0 | 0.00 | 0.00 | 0.00 | 99 | 1021.3 |
| 20260902055125 | 72 | 203 | 0.0 | 0.0 | 0.00 | 0.00 | 0.00 | 99 | 1021.3 |
| 20260902054536 | 72 | 203 | 0.0 | 0.0 | 0.00 | 0.00 | 0.00 | 99 | 1021.3 |
| 20260902053929 | 72 | 225 | 0.0 | 0.0 | 0.00 | 0.00 | 0.00 | 99 | 1021.3 |
| 20260902053338 | 72 | 225 | 0.0 | 0.0 | 0.00 | 0.00 | 0.00 | 99 | 1021.3 |
| 20260902052123 | 72 | 203 | 0.0 | 0.0 | 0.00 | 0.00 | 0.00 | 99 | 1021.3 |
| 20260902051511 | 72 | 225 | 0.0 | 0.0 | 0.00 | 0.00 | 0.00 | 99 | 1020.9 |
| 20260902050907 | 72 | 225 | 0.0 | 0.0 | 0.00 | 0.00 | 0.00 | 99 | 1020.9 |
| 20260902050320 | 72 | 225 | 0.0 | 0.0 | 0.00 | 0.00 | 0.00 | 99 | 1020.9 |
| 20260902045729 | 72 | 225 | 0.0 | 0.0 | 0.00 | 0.00 | 0.00 | 99 | 1020.9 |
| 20260902045115 | 72 | 270 | 0.0 | 0.0 | 0.00 | 0.00 | 0.00 | 99 | 1020.9 |
| 20260902043942 | 73 | 203 | 0.0 | 0.0 | 0.00 | 0.00 | 0.00 | 99 | 1020.9 |
| 20260902043349 | 73 | 225 | 0.0 | 0.0 | 0.00 | 0.00 | 0.00 | 99 | 1020.9 |
| 20260902042748 | 73 | 225 | 0.0 | 0.0 | 0.00 | 0.00 | 0.00 | 99 | 1020.9 |
| 20260902042144 | 73 | 203 | 0.0 | 0.0 | 0.00 | 0.00 | 0.00 | 99 | 1020.9 |
| 20260902041539 | 73 | 225 | 0.0 | 0.0 | 0.00 | 0.00 | 0.00 | 99 | 1020.9 |
| 20260902040933 | 73 | 225 | 0.0 | 0.0 | 0.00 | 0.00 | 0.00 | 99 | 1020.9 |
| 20260902040333 | 73 | 203 | 0.0 | 0.0 | 0.00 | 0.00 | 0.00 | 99 | 1020.9 |
| 20260902035715 | 73 | 203 | 0.0 | 0.0 | 0.00 | 0.00 | 0.00 | 99 | 1020.9 |
| 20260902035111 | 73 | 180 | 0.0 | 0.0 | 0.00 | 0.00 | 0.00 | 99 | 1020.9 |
| 20260902034505 | 74 | 203 | 0.0 | 0.0 | 0.00 | 0.00 | 0.00 | 99 | 1020.9 |
| 20260902033906 | 74 | 203 | 0.0 | 0.0 | 0.00 | 0.00 | 0.00 | 99 | 1020.9 |
| 20260902033323 | 74 | 225 | 0.0 | 0.0 | 0.00 | 0.00 | 0.00 | 99 | 1020.9 |
| 20260902032117 | 74 | 203 | 0.0 | 0.0 | 0.00 | 0.00 | 0.00 | 99 | 1020.9 |
| 20260902031530 | 74 | 203 | 0.0 | 0.0 | 0.00 | 0.00 | 0.00 | 99 | 1020.9 |
| 20260902030914 | 74 | 225 | 0.0 | 0.0 | 0.00 | 0.00 | 0.00 | 99 | 1020.9 |
| 20260902025726 | 74 | 203 | 0.0 | 0.0 | 0.00 | 0.00 | 0.00 | 99 | 1020.9 |
| 20260902025144 | 74 | 203 | 0.0 | 0.0 | 0.00 | 0.00 | 0.00 | 99 | 1020.9 |
| 20260902024536 | 75 | 225 | 0.0 | 0.0 | 0.00 | 0.00 | 0.00 | 99 | 1020.6 |
| 20260902023948 | 75 | 225 | 0.0 | 0.0 | 0.00 | 0.00 | 0.00 | 99 | 1020.9 |
| 20260902023349 | 75 | 225 | 0.0 | 0.0 | 0.00 | 0.00 | 0.00 | 99 | 1020.9 |
| 20260902022717 | 75 | 203 | 0.0 | 0.0 | 0.00 | 0.00 | 0.00 | 99 | 1020.9 |
| 20260902022119 | 75 | 270 | 0.0 | 0.0 | 0.00 | 0.00 | 0.00 | 99 | 1020.6 |
| 20260902020938 | 75 | 248 | 0.0 | 0.0 | 0.00 | 0.00 | 0.00 | 99 | 1020.9 |
| 20260902020310 | 76 | 203 | 0.0 | 0.0 | 0.00 | 0.00 | 0.00 | 99 | 1020.9 |
| 20260902015123 | 76 | 203 | 0.0 | 0.0 | 0.00 | 0.00 | 0.00 | 99 | 1020.6 |
| 20260902014507 | 76 | 225 | 1.0 | 1.0 | 0.00 | 0.00 | 0.00 | 99 | 1020.6 |
| 20260902013906 | 76 | 203 | 0.0 | 2.0 | 0.00 | 0.00 | 0.00 | 99 | 1020.6 |
| 20260902013337 | 76 | 203 | 0.0 | 0.0 | 0.00 | 0.00 | 0.00 | 99 | 1020.6 |
| 20260902012738 | 77 | 203 | 0.0 | 0.0 | 0.00 | 0.00 | 0.00 | 99 | 1020.3 |
| 20260902012124 | 77 | 225 | 0.0 | 0.0 | 0.00 | 0.00 | 0.00 | 99 | 1020.3 |
| 20260902011532 | 77 | 203 | 0.0 | 0.0 | 0.00 | 0.00 | 0.00 | 99 | 1020.3 |
| 20260902010942 | 77 | 225 | 0.0 | 0.0 | 0.00 | 0.00 | 0.00 | 99 | 1020.3 |
| 20260902010322 | 78 | 180 | 0.0 | 2.0 | 0.00 | 0.00 | 0.00 | 99 | 1020.3 |
| 20260902005741 | 78 | 203 | 0.0 | 1.0 | 0.00 | 0.00 | 0.00 | 99 | 1020.3 |
| 20260902005121 | 78 | 203 | 0.0 | 0.0 | 0.00 | 0.00 | 0.00 | 99 | 1020.3 |
| 20260902004519 | 78 | 225 | 1.0 | 1.0 | 0.00 | 0.00 | 0.00 | 99 | 1019.9 |
| 20260902003908 | 79 | 270 | 2.0 | 2.0 | 0.00 | 0.00 | 0.00 | 99 | 1019.9 |
| 20260902003349 | 79 | 225 | 2.0 | 3.0 | 0.00 | 0.00 | 0.00 | 99 | 1019.9 |
| 20260902002718 | 79 | 225 | 2.0 | 2.0 | 0.00 | 0.00 | 0.00 | 99 | 1019.9 |
| 20260902002122 | 79 | 225 | 1.0 | 2.0 | 0.00 | 0.00 | 0.00 | 99 | 1019.9 |
| 20260902001528 | 80 | 203 | 3.0 | 3.0 | 0.00 | 0.00 | 0.00 | 99 | 1019.9 |
| 20260902000948 | 80 | 225 | 2.0 | 3.0 | 0.00 | 0.00 | 0.00 | 99 | 1019.9 |
| 20260902000315 | 81 | 203 | 2.0 | 3.0 | 0.00 | 0.00 | 0.00 | 98 | 1019.6 |
| 20260901235711 | 82 | 203 | 2.0 | 3.0 | 0.00 | 0.00 | 0.00 | 95 | 1019.6 |
| 20260901235130 | 83 | 203 | 2.0 | 2.0 | 0.00 | 0.00 | 0.00 | 93 | 1019.6 |
| 20260901234505 | 83 | 203 | 1.0 | 2.0 | 0.00 | 0.00 | 0.00 | 91 | 1019.6 |
| 20260901233934 | 85 | 203 | 1.0 | 2.0 | 0.00 | 0.00 | 0.00 | 88 | 1019.6 |
| 20260901233312 | 84 | 203 | 2.0 | 2.0 | 0.00 | 0.00 | 0.00 | 89 | 1019.6 |
| 20260901232707 | 87 | 203 | 2.0 | 2.0 | 0.00 | 0.00 | 0.00 | 84 | 1019.6 |
| 20260901232113 | 87 | 225 | 1.0 | 3.0 | 0.00 | 0.00 | 0.00 | 83 | 1019.6 |
| 20260901230931 | 88 | 203 | 2.0 | 3.0 | 0.00 | 0.00 | 0.00 | 82 | 1019.6 |